Location: Rio Negrinho
(26.2394°S, 49.4999°W)
Time: 08:06:51
(UTC+00:00)

H-2A R/B - Pass Details

Date: 05 October 2020
Orbit: 500 x 542 km, 97.3° (Epoch: 17 June)

Event Time Altitude Azimuth Distance (km) Brightness Sun altitude
Rises 07:48:21 0° 35° (NE) 2,629 6.6 -15.1°
Reaches altitude 10° 07:50:38 10° 47° (NE) 1,758 5.9 -14.6°
Maximum altitude 07:53:52 27° 106° (ESE) 1,046 5.2 -13.9°
Drops below altitude 10° 07:57:10 10° 164° (SSE) 1,799 5.8 -13.1°
Sets 07:59:31 0° 176° (S) 2,705 6.6 -12.6°
